date,time,SUV Intensity [MED/Hr],UV Index,Daily total [MED],Since Last [MED]
29/07/2023,23:59:31,0.000,0.0,11.571,11.571
30/07/2023,00:00:31,-0.000,0.0,0.0,-11.571
30/07/2023,00:01:33,0.000,0.0,0.0,0.0
30/07/2023,00:02:31,0.000,0.0,0.0,0.0
30/07/2023,00:03:31,0.001,0.0,0.0,0.0
30/07/2023,00:04:30,-0.000,0.0,0.0,0.0
30/07/2023,00:05:31,0.000,0.0,0.0,0.0
30/07/2023,00:06:31,0.000,0.0,0.0,0.0
30/07/2023,00:07:31,0.000,0.0,0.0,0.0
30/07/2023,00:08:30,0.000,0.0,0.0,0.0
30/07/2023,00:09:30,0.000,0.0,0.0,0.0
30/07/2023,00:10:31,0.000,0.0,0.0,0.0
30/07/2023,00:11:31,0.000,0.0,0.0,0.0
30/07/2023,00:12:31,0.000,0.0,0.0,0.0
30/07/2023,00:13:31,0.000,0.0,0.0,0.0
30/07/2023,00:14:31,-0.000,0.0,0.0,0.0
30/07/2023,00:15:31,0.000,0.0,0.0,0.0
30/07/2023,00:16:30,0.000,0.0,0.0,0.0
30/07/2023,00:17:31,0.000,0.0,0.0,0.0
30/07/2023,00:18:31,0.000,0.0,0.0,0.0
30/07/2023,00:19:31,0.000,0.0,0.0,0.0
30/07/2023,00:21:00,0.000,0.0,0.0,0.0
30/07/2023,00:22:31,0.000,0.0,0.0,0.0
30/07/2023,00:23:31,0.000,0.0,0.0,0.0
30/07/2023,00:24:30,0.000,0.0,0.0,0.0
30/07/2023,00:25:31,-0.000,0.0,0.0,0.0
30/07/2023,00:26:31,0.000,0.0,0.0,0.0
30/07/2023,00:27:31,0.000,0.0,0.0,0.0
30/07/2023,00:28:30,0.000,0.0,0.0,0.0
30/07/2023,00:29:31,0.000,0.0,0.0,0.0
30/07/2023,00:30:31,0.000,0.0,0.0,0.0
30/07/2023,00:31:31,0.000,0.0,0.0,0.0
30/07/2023,00:32:31,0.000,0.0,0.0,0.0
30/07/2023,00:33:31,0.000,0.0,0.0,0.0
30/07/2023,00:34:31,0.000,0.0,0.0,0.0
30/07/2023,00:35:31,0.000,0.0,0.0,0.0
30/07/2023,00:36:31,0.000,0.0,0.0,0.0
30/07/2023,00:37:31,0.000,0.0,0.0,0.0
30/07/2023,00:38:31,0.000,0.0,0.0,0.0
30/07/2023,00:39:31,0.000,0.0,0.0,0.0
30/07/2023,00:40:33,-0.000,0.0,0.0,0.0
30/07/2023,00:41:31,0.000,0.0,0.0,0.0
30/07/2023,00:42:31,0.000,0.0,0.0,0.0
30/07/2023,00:43:30,0.000,0.0,0.0,0.0
30/07/2023,00:44:31,0.000,0.0,0.0,0.0
30/07/2023,00:45:31,0.000,0.0,0.0,0.0
30/07/2023,00:46:31,-0.000,0.0,0.0,0.0
30/07/2023,00:47:30,0.000,0.0,0.0,0.0
30/07/2023,00:48:53,0.000,0.0,0.0,0.0
30/07/2023,00:50:32,0.000,0.0,0.0,0.0
30/07/2023,00:51:34,0.000,0.0,0.0,0.0
30/07/2023,00:52:32,0.000,0.0,0.0,0.0
30/07/2023,00:53:31,0.000,0.0,0.0,0.0
30/07/2023,00:54:31,-0.000,0.0,0.0,0.0
30/07/2023,00:55:31,0.000,0.0,0.0,0.0
30/07/2023,00:56:31,-0.000,0.0,0.0,0.0
30/07/2023,00:57:31,0.000,0.0,0.0,0.0
30/07/2023,00:58:30,0.000,0.0,0.0,0.0
30/07/2023,00:59:31,0.000,0.0,0.0,0.0
30/07/2023,01:00:30,0.000,0.0,0.0,0.0
30/07/2023,01:01:31,0.000,0.0,0.0,0.0
30/07/2023,01:02:31,0.000,0.0,0.0,0.0
30/07/2023,01:03:31,0.000,0.0,0.0,0.0
30/07/2023,01:04:31,0.000,0.0,0.0,0.0
30/07/2023,01:05:31,0.000,0.0,0.0,0.0
30/07/2023,01:06:31,0.000,0.0,0.0,0.0
30/07/2023,01:07:31,0.000,0.0,0.0,0.0
30/07/2023,01:08:31,0.001,0.0,0.0,0.0
30/07/2023,01:09:31,0.000,0.0,0.0,0.0
30/07/2023,01:10:31,0.000,0.0,0.0,0.0
30/07/2023,01:11:30,0.000,0.0,0.0,0.0
30/07/2023,01:12:31,0.000,0.0,0.0,0.0
30/07/2023,01:13:31,0.000,0.0,0.0,0.0
30/07/2023,01:14:31,0.000,0.0,0.0,0.0
30/07/2023,01:15:31,0.000,0.0,0.0,0.0
30/07/2023,01:16:31,0.000,0.0,0.0,0.0
30/07/2023,01:17:31,0.000,0.0,0.0,0.0
30/07/2023,01:18:33,0.000,0.0,0.0,0.0
30/07/2023,01:19:31,0.000,0.0,0.0,0.0
30/07/2023,01:20:31,0.000,0.0,0.0,0.0
30/07/2023,01:21:29,0.000,0.0,0.0,0.0
30/07/2023,01:22:30,0.000,0.0,0.0,0.0
30/07/2023,01:23:32,-0.000,0.0,0.0,0.0
30/07/2023,01:24:31,0.000,0.0,0.0,0.0
30/07/2023,01:25:31,0.000,0.0,0.0,0.0
30/07/2023,01:26:31,0.000,0.0,0.0,0.0
30/07/2023,01:27:31,-0.000,0.0,0.0,0.0
30/07/2023,01:28:31,0.000,0.0,0.0,0.0
30/07/2023,01:29:31,0.000,0.0,0.0,0.0
30/07/2023,01:30:31,0.000,0.0,0.0,0.0
30/07/2023,01:31:31,-0.000,0.0,0.0,0.0
30/07/2023,01:32:31,0.000,0.0,0.0,0.0
30/07/2023,01:33:31,0.000,0.0,0.0,0.0
30/07/2023,01:34:31,0.001,0.0,0.0,0.0
30/07/2023,01:35:31,0.000,0.0,0.0,0.0
30/07/2023,01:36:31,-0.000,0.0,0.0,0.0
30/07/2023,01:37:31,0.000,0.0,0.0,0.0
30/07/2023,01:38:30,-0.000,0.0,0.0,0.0
30/07/2023,01:39:31,0.000,0.0,0.0,0.0
30/07/2023,01:40:30,0.000,0.0,0.0,0.0
30/07/2023,01:41:30,0.000,0.0,0.0,0.0
30/07/2023,01:42:31,0.000,0.0,0.0,0.0
30/07/2023,01:43:31,0.000,0.0,0.0,0.0
30/07/2023,01:44:30,0.000,0.0,0.0,0.0
30/07/2023,01:45:31,0.000,0.0,0.0,0.0
30/07/2023,01:46:31,0.000,0.0,0.0,0.0
30/07/2023,01:47:31,0.000,0.0,0.0,0.0
30/07/2023,01:48:31,0.000,0.0,0.0,0.0
30/07/2023,01:49:31,0.000,0.0,0.0,0.0
30/07/2023,01:50:31,0.000,0.0,0.0,0.0
30/07/2023,01:51:31,0.000,0.0,0.0,0.0
30/07/2023,01:52:31,0.000,0.0,0.0,0.0
30/07/2023,01:53:30,0.000,0.0,0.0,0.0
30/07/2023,01:54:31,0.000,0.0,0.0,0.0
30/07/2023,01:55:30,0.000,0.0,0.0,0.0
30/07/2023,01:56:31,0.000,0.0,0.0,0.0
30/07/2023,01:57:31,0.000,0.0,0.0,0.0
30/07/2023,01:58:31,0.000,0.0,0.0,0.0
30/07/2023,01:59:31,0.000,0.0,0.0,0.0
30/07/2023,02:00:31,0.000,0.0,0.0,0.0
30/07/2023,02:01:31,-0.000,0.0,0.0,0.0
30/07/2023,02:02:31,0.001,0.0,0.0,0.0
30/07/2023,02:03:31,0.000,0.0,0.0,0.0
30/07/2023,02:04:31,0.000,0.0,0.0,0.0
30/07/2023,02:05:31,0.000,0.0,0.0,0.0
30/07/2023,02:06:31,0.000,0.0,0.0,0.0
30/07/2023,02:07:30,0.002,0.0,0.0,0.0
30/07/2023,02:08:31,-0.000,0.0,0.0,0.0
30/07/2023,02:09:31,0.000,0.0,0.0,0.0
30/07/2023,02:10:31,0.000,0.0,0.0,0.0
30/07/2023,02:11:31,0.000,0.0,0.0,0.0
30/07/2023,02:12:31,0.000,0.0,0.0,0.0
30/07/2023,02:13:32,0.000,0.0,0.0,0.0
30/07/2023,02:14:31,0.000,0.0,0.0,0.0
30/07/2023,02:15:31,0.000,0.0,0.0,0.0
30/07/2023,02:16:30,0.000,0.0,0.0,0.0
30/07/2023,02:17:53,0.000,0.0,0.0,0.0
30/07/2023,02:19:32,0.001,0.0,0.0,0.0
30/07/2023,02:20:31,0.000,0.0,0.0,0.0
30/07/2023,02:21:31,0.000,0.0,0.0,0.0
30/07/2023,02:22:31,0.000,0.0,0.0,0.0
30/07/2023,02:23:31,0.001,0.0,0.0,0.0
30/07/2023,02:24:31,0.001,0.0,0.0,0.0
30/07/2023,02:25:31,0.000,0.0,0.0,0.0
30/07/2023,02:26:31,0.000,0.0,0.0,0.0
30/07/2023,02:27:31,-0.000,0.0,0.0,0.0
30/07/2023,02:28:31,0.000,0.0,0.0,0.0
30/07/2023,02:29:31,-0.000,0.0,0.0,0.0
30/07/2023,02:30:31,0.001,0.0,0.0,0.0
30/07/2023,02:31:30,0.000,0.0,0.0,0.0
30/07/2023,02:32:31,0.000,0.0,0.0,0.0
30/07/2023,02:33:31,0.001,0.0,0.0,0.0
30/07/2023,02:34:31,0.000,0.0,0.0,0.0
30/07/2023,02:35:33,0.001,0.0,0.0,0.0
30/07/2023,02:36:32,0.001,0.0,0.0,0.0
30/07/2023,02:37:31,0.001,0.0,0.0,0.0
30/07/2023,02:38:31,0.000,0.0,0.0,0.0
30/07/2023,02:39:31,0.000,0.0,0.0,0.0
30/07/2023,02:40:31,0.001,0.0,0.0,0.0
30/07/2023,02:41:31,0.000,0.0,0.0,0.0
30/07/2023,02:42:31,0.001,0.0,0.0,0.0
30/07/2023,02:43:31,0.000,0.0,0.0,0.0
30/07/2023,02:44:31,0.001,0.0,0.0,0.0
30/07/2023,02:45:31,0.001,0.0,0.0,0.0
30/07/2023,02:46:31,0.001,0.0,0.0,0.0
30/07/2023,02:47:31,0.001,0.0,0.0,0.0
30/07/2023,02:48:31,0.001,0.0,0.0,0.0
30/07/2023,02:49:31,0.001,0.0,0.0,0.0
30/07/2023,02:50:31,0.001,0.0,0.0,0.0
30/07/2023,02:51:32,0.000,0.0,0.0,0.0
30/07/2023,02:52:31,0.001,0.0,0.0,0.0
30/07/2023,02:53:31,0.001,0.0,0.0,0.0
30/07/2023,02:54:31,-0.000,0.0,0.0,0.0
30/07/2023,02:55:31,0.000,0.0,0.0,0.0
30/07/2023,02:56:31,0.000,0.0,0.0,0.0
30/07/2023,02:57:31,0.001,0.0,0.0,0.0
30/07/2023,02:58:31,0.000,0.0,0.0,0.0
30/07/2023,02:59:31,0.000,0.0,0.0,0.0
30/07/2023,03:00:31,0.000,0.0,0.0,0.0
30/07/2023,03:01:31,0.001,0.0,0.0,0.0
30/07/2023,03:02:31,0.000,0.0,0.0,0.0
30/07/2023,03:03:31,0.001,0.0,0.0,0.0
30/07/2023,03:04:31,0.000,0.0,0.0,0.0
30/07/2023,03:05:31,0.000,0.0,0.0,0.0
30/07/2023,03:06:31,-0.000,0.0,0.0,0.0
30/07/2023,03:07:31,0.001,0.0,0.0,0.0
30/07/2023,03:08:31,0.001,0.0,0.0,0.0
30/07/2023,03:09:31,0.001,0.0,0.0,0.0
30/07/2023,03:10:31,0.001,0.0,0.0,0.0
30/07/2023,03:11:31,0.001,0.0,0.0,0.0
30/07/2023,03:12:31,0.000,0.0,0.0,0.0
30/07/2023,03:13:31,0.000,0.0,0.0,0.0
30/07/2023,03:14:31,0.000,0.0,0.0,0.0
30/07/2023,03:15:31,0.000,0.0,0.0,0.0
30/07/2023,03:16:31,0.001,0.0,0.0,0.0
30/07/2023,03:17:31,-0.000,0.0,0.0,0.0
30/07/2023,03:18:31,0.000,0.0,0.0,0.0
30/07/2023,03:19:35,0.001,0.0,0.0,0.0
30/07/2023,03:20:31,0.000,0.0,0.0,0.0
30/07/2023,03:21:31,0.000,0.0,0.0,0.0
30/07/2023,03:22:31,0.000,0.0,0.0,0.0
30/07/2023,03:23:31,0.000,0.0,0.0,0.0
30/07/2023,03:24:31,0.000,0.0,0.0,0.0
30/07/2023,03:25:33,0.000,0.0,0.0,0.0
30/07/2023,03:26:31,0.000,0.0,0.0,0.0
30/07/2023,03:27:32,0.000,0.0,0.0,0.0
30/07/2023,03:28:31,0.000,0.0,0.0,0.0
30/07/2023,03:29:31,0.000,0.0,0.0,0.0
30/07/2023,03:30:31,0.000,0.0,0.0,0.0
30/07/2023,03:31:31,0.000,0.0,0.0,0.0
30/07/2023,03:32:31,-0.000,0.0,0.0,0.0
30/07/2023,03:33:31,0.000,0.0,0.0,0.0
30/07/2023,03:34:31,0.001,0.0,0.0,0.0
30/07/2023,03:35:31,0.001,0.0,0.0,0.0
30/07/2023,03:36:32,0.001,0.0,0.0,0.0
30/07/2023,03:37:31,-0.000,0.0,0.0,0.0
30/07/2023,03:38:31,0.000,0.0,0.0,0.0
30/07/2023,03:39:31,0.001,0.0,0.0,0.0
30/07/2023,03:40:30,-0.000,0.0,0.0,0.0
30/07/2023,03:41:31,0.001,0.0,0.0,0.0
30/07/2023,03:42:31,0.000,0.0,0.0,0.0
30/07/2023,03:43:32,0.001,0.0,0.0,0.0
30/07/2023,03:44:31,0.001,0.0,0.0,0.0
30/07/2023,03:45:31,0.000,0.0,0.0,0.0
30/07/2023,03:46:31,0.001,0.0,0.0,0.0
30/07/2023,03:47:31,0.001,0.0,0.0,0.0
30/07/2023,03:48:31,0.001,0.0,0.0,0.0
30/07/2023,03:49:31,0.001,0.0,0.0,0.0
30/07/2023,03:50:31,0.001,0.0,0.0,0.0
30/07/2023,03:51:31,0.001,0.0,0.0,0.0
30/07/2023,03:52:31,0.001,0.0,0.0,0.0
30/07/2023,03:53:31,0.001,0.0,0.0,0.0
30/07/2023,03:54:31,0.001,0.0,0.0,0.0
30/07/2023,03:55:31,-0.000,0.0,0.0,0.0
30/07/2023,03:56:31,0.001,0.0,0.0,0.0
30/07/2023,03:57:31,0.001,0.0,0.0,0.0
30/07/2023,03:58:31,0.001,0.0,0.0,0.0
30/07/2023,03:59:31,0.000,0.0,0.0,0.0
30/07/2023,04:00:32,0.001,0.0,0.0,0.0
30/07/2023,04:01:31,0.000,0.0,0.0,0.0
30/07/2023,04:02:32,0.001,0.0,0.0,0.0
30/07/2023,04:03:31,0.001,0.0,0.0,0.0
30/07/2023,04:04:32,0.001,0.0,0.0,0.0
30/07/2023,04:05:31,0.001,0.0,0.0,0.0
30/07/2023,04:06:31,0.002,0.0,0.0,0.0
30/07/2023,04:07:32,0.001,0.0,0.0,0.0
30/07/2023,04:08:31,0.001,0.0,0.0,0.0
30/07/2023,04:09:31,0.001,0.0,0.0,0.0
30/07/2023,04:10:31,0.002,0.0,0.0,0.0
30/07/2023,04:11:29,0.001,0.0,0.0,0.0
30/07/2023,04:12:31,0.001,0.0,0.0,0.0
30/07/2023,04:13:31,0.002,0.0,0.0,0.0
30/07/2023,04:14:31,0.002,0.0,0.0,0.0
30/07/2023,04:15:31,0.002,0.0,0.0,0.0
30/07/2023,04:16:31,0.002,0.0,0.0,0.0
30/07/2023,04:17:31,0.001,0.0,0.0,0.0
30/07/2023,04:18:31,0.001,0.0,0.0,0.0
30/07/2023,04:19:31,0.002,0.0,0.0,0.0
30/07/2023,04:20:31,0.002,0.0,0.0,0.0
30/07/2023,04:21:31,0.003,0.0,0.0,0.0
30/07/2023,04:22:32,0.003,0.0,0.0,0.0
30/07/2023,04:23:31,0.002,0.0,0.0,0.0
30/07/2023,04:24:31,0.002,0.0,0.0,0.0
30/07/2023,04:25:31,0.002,0.0,0.0,0.0
30/07/2023,04:26:31,0.003,0.0,0.0,0.0
30/07/2023,04:27:31,0.003,0.0,0.0,0.0
30/07/2023,04:28:31,0.003,0.0,0.0,0.0
30/07/2023,04:29:31,0.003,0.0,0.0,0.0
30/07/2023,04:30:31,0.003,0.0,0.0,0.0
30/07/2023,04:31:31,0.003,0.0,0.0,0.0
30/07/2023,04:32:32,0.004,0.0,0.0,0.0
30/07/2023,04:33:31,0.004,0.0,0.0,0.0
30/07/2023,04:34:31,0.004,0.0,0.0,0.0
30/07/2023,04:35:31,0.005,0.0,0.0,0.0
30/07/2023,04:36:31,0.005,0.0,0.0,0.0
30/07/2023,04:37:31,0.005,0.0,0.0,0.0
30/07/2023,04:38:31,0.005,0.0,0.0,0.0
30/07/2023,04:39:31,0.006,0.0,0.0,0.0
30/07/2023,04:40:32,0.006,0.0,0.0,0.0
30/07/2023,04:41:31,0.006,0.0,0.0,0.0
30/07/2023,04:42:31,0.006,0.0,0.0,0.0
30/07/2023,04:43:31,0.007,0.0,0.0,0.0
30/07/2023,04:44:31,0.007,0.0,0.0,0.0
30/07/2023,04:45:31,0.008,0.0,0.001,0.001
30/07/2023,04:46:32,0.008,0.0,0.001,0.0
30/07/2023,04:47:31,0.008,0.0,0.001,0.0
30/07/2023,04:48:31,0.008,0.0,0.001,0.0
30/07/2023,04:49:32,0.009,0.0,0.001,0.0
30/07/2023,04:50:32,0.009,0.0,0.001,0.0
30/07/2023,04:51:31,0.009,0.0,0.001,0.0
30/07/2023,04:52:31,0.010,0.0,0.002,0.001
30/07/2023,04:53:31,0.009,0.0,0.002,0.0
30/07/2023,04:54:31,0.012,0.0,0.002,0.0
30/07/2023,04:55:31,0.011,0.0,0.002,0.0
30/07/2023,04:56:31,0.011,0.0,0.002,0.0
30/07/2023,04:57:32,0.012,0.0,0.002,0.0
30/07/2023,04:58:31,0.012,0.0,0.003,0.001
30/07/2023,04:59:32,0.013,0.0,0.003,0.0
30/07/2023,05:00:31,0.013,0.0,0.003,0.0
30/07/2023,05:01:31,0.013,0.0,0.003,0.0
30/07/2023,05:02:32,0.013,0.0,0.004,0.001
30/07/2023,05:03:32,0.015,0.0,0.004,0.0
30/07/2023,05:04:31,0.015,0.0,0.004,0.0
30/07/2023,05:05:31,0.015,0.0,0.004,0.0
30/07/2023,05:06:31,0.016,0.0,0.005,0.001
30/07/2023,05:07:32,0.017,0.0,0.005,0.0
30/07/2023,05:08:31,0.017,0.0,0.005,0.0
30/07/2023,05:09:31,0.018,0.0,0.005,0.0
30/07/2023,05:10:31,0.018,0.0,0.006,0.001
30/07/2023,05:11:31,0.019,0.0,0.006,0.0
30/07/2023,05:12:32,0.020,0.0,0.006,0.0
30/07/2023,05:13:31,0.021,0.0,0.007,0.001
30/07/2023,05:14:32,0.021,0.0,0.007,0.0
30/07/2023,05:15:31,0.021,0.0,0.007,0.0
30/07/2023,05:16:32,0.022,0.0,0.008,0.001
30/07/2023,05:17:31,0.023,0.0,0.008,0.0
30/07/2023,05:18:32,0.024,0.0,0.008,0.0
30/07/2023,05:19:31,0.024,0.0,0.009,0.001
30/07/2023,05:20:32,0.024,0.0,0.009,0.0
30/07/2023,05:21:31,0.025,0.0,0.01,0.001
30/07/2023,05:22:31,0.025,0.0,0.01,0.0
30/07/2023,05:23:31,0.025,0.0,0.011,0.001
30/07/2023,05:24:31,0.025,0.0,0.011,0.0
30/07/2023,05:25:31,0.026,0.0,0.011,0.0
30/07/2023,05:26:31,0.028,0.0,0.012,0.001
30/07/2023,05:27:31,0.028,0.0,0.012,0.0
30/07/2023,05:28:31,0.028,0.0,0.013,0.001
30/07/2023,05:29:31,0.029,0.0,0.013,0.0
30/07/2023,05:30:32,0.028,0.0,0.014,0.001
30/07/2023,05:31:31,0.027,0.0,0.014,0.0
30/07/2023,05:32:31,0.028,0.0,0.015,0.001
30/07/2023,05:33:31,0.029,0.0,0.015,0.0
30/07/2023,05:34:32,0.031,0.0,0.016,0.001
30/07/2023,05:35:32,0.032,0.0,0.016,0.0
30/07/2023,05:36:31,0.034,0.0,0.017,0.001
30/07/2023,05:37:31,0.037,0.0,0.017,0.0
30/07/2023,05:38:31,0.037,0.0,0.018,0.001
30/07/2023,05:39:31,0.039,0.0,0.019,0.001
30/07/2023,05:40:31,0.041,0.0,0.019,0.0
30/07/2023,05:41:32,0.040,0.0,0.02,0.001
30/07/2023,05:42:31,0.043,0.0,0.021,0.001
30/07/2023,05:43:31,0.043,0.0,0.021,0.0
30/07/2023,05:44:32,0.044,0.0,0.022,0.001
30/07/2023,05:45:31,0.047,0.0,0.023,0.001
30/07/2023,05:46:31,0.048,0.0,0.024,0.001
30/07/2023,05:47:31,0.050,0.0,0.024,0.0
30/07/2023,05:48:32,0.050,0.0,0.025,0.001
30/07/2023,05:49:32,0.051,0.0,0.026,0.001
30/07/2023,05:50:31,0.052,0.0,0.027,0.001
30/07/2023,05:51:32,0.051,0.0,0.028,0.001
30/07/2023,05:52:32,0.050,0.0,0.029,0.001
30/07/2023,05:53:32,0.053,0.0,0.029,0.0
30/07/2023,05:54:31,0.054,0.0,0.03,0.001
30/07/2023,05:55:31,0.053,0.0,0.031,0.001
30/07/2023,05:56:31,0.053,0.0,0.032,0.001
30/07/2023,05:57:31,0.053,0.0,0.033,0.001
30/07/2023,05:58:32,0.052,0.0,0.034,0.001
30/07/2023,05:59:31,0.050,0.0,0.035,0.001
30/07/2023,06:00:31,0.049,0.0,0.036,0.001
30/07/2023,06:01:31,0.049,0.0,0.036,0.0
30/07/2023,06:02:31,0.050,0.0,0.037,0.001
30/07/2023,06:03:32,0.053,0.0,0.038,0.001
30/07/2023,06:04:31,0.057,0.0,0.039,0.001
30/07/2023,06:05:31,0.059,0.0,0.04,0.001
30/07/2023,06:06:32,0.064,0.0,0.041,0.001
30/07/2023,06:07:31,0.068,0.0,0.042,0.001
30/07/2023,06:08:32,0.072,0.0,0.043,0.001
30/07/2023,06:09:31,0.077,0.0,0.044,0.001
30/07/2023,06:10:31,0.081,0.0,0.046,0.002
30/07/2023,06:11:31,0.085,0.0,0.047,0.001
30/07/2023,06:12:32,0.087,0.0,0.049,0.002
30/07/2023,06:13:31,0.088,0.0,0.05,0.001
30/07/2023,06:14:31,0.092,0.0,0.052,0.002
30/07/2023,06:15:32,0.099,0.0,0.053,0.001
30/07/2023,06:16:31,0.101,0.0,0.055,0.002
30/07/2023,06:17:31,0.097,0.0,0.056,0.001
30/07/2023,06:18:32,0.097,0.0,0.058,0.002
30/07/2023,06:19:31,0.100,0.0,0.06,0.002
30/07/2023,06:20:31,0.103,0.0,0.061,0.001
30/07/2023,06:21:32,0.106,0.0,0.063,0.002
30/07/2023,06:22:32,0.110,0.0,0.065,0.002
30/07/2023,06:23:32,0.115,0.0,0.067,0.002
30/07/2023,06:24:31,0.121,0.0,0.069,0.002
30/07/2023,06:25:31,0.123,0.0,0.071,0.002
30/07/2023,06:26:31,0.126,0.0,0.073,0.002
30/07/2023,06:27:32,0.125,0.0,0.075,0.002
30/07/2023,06:28:31,0.134,0.0,0.077,0.002
30/07/2023,06:29:31,0.138,0.0,0.08,0.003
30/07/2023,06:30:32,0.129,0.0,0.082,0.002
30/07/2023,06:31:31,0.140,0.0,0.084,0.002
30/07/2023,06:32:31,0.135,0.0,0.086,0.002
30/07/2023,06:33:31,0.147,0.0,0.089,0.003
30/07/2023,06:34:32,0.133,0.0,0.091,0.002
30/07/2023,06:35:32,0.144,0.0,0.093,0.002
30/07/2023,06:36:32,0.153,0.0,0.096,0.003
30/07/2023,06:37:31,0.155,0.0,0.098,0.002
30/07/2023,06:38:32,0.160,0.0,0.101,0.003
30/07/2023,06:39:31,0.149,0.0,0.104,0.003
30/07/2023,06:40:32,0.165,0.0,0.106,0.002
30/07/2023,06:41:32,0.169,0.0,0.109,0.003
30/07/2023,06:42:31,0.153,0.0,0.112,0.003
30/07/2023,06:43:32,0.158,0.0,0.114,0.002
30/07/2023,06:44:31,0.172,0.0,0.117,0.003
30/07/2023,06:45:31,0.162,0.0,0.12,0.003
30/07/2023,06:46:32,0.161,0.0,0.123,0.003
30/07/2023,06:47:31,0.165,0.0,0.125,0.002
30/07/2023,06:48:31,0.171,0.0,0.128,0.003
30/07/2023,06:49:32,0.198,0.0,0.131,0.003
30/07/2023,06:50:31,0.201,0.0,0.134,0.003
30/07/2023,06:51:31,0.206,0.0,0.138,0.004
30/07/2023,06:52:32,0.209,0.0,0.141,0.003
30/07/2023,06:53:32,0.212,0.0,0.145,0.004
30/07/2023,06:54:31,0.217,0.0,0.148,0.003
30/07/2023,06:55:31,0.225,1.0,0.152,0.004
30/07/2023,06:56:32,0.231,1.0,0.156,0.004
30/07/2023,06:57:32,0.232,1.0,0.16,0.004
30/07/2023,06:58:31,0.237,1.0,0.164,0.004
30/07/2023,06:59:31,0.232,1.0,0.167,0.003
30/07/2023,07:00:31,0.202,0.0,0.171,0.004
30/07/2023,07:01:31,0.204,0.0,0.175,0.004
30/07/2023,07:02:32,0.212,0.0,0.178,0.003
30/07/2023,07:03:31,0.221,1.0,0.182,0.004
30/07/2023,07:04:32,0.263,1.0,0.186,0.004
30/07/2023,07:05:31,0.268,1.0,0.19,0.004
30/07/2023,07:06:31,0.273,1.0,0.195,0.005
30/07/2023,07:07:31,0.278,1.0,0.199,0.004
30/07/2023,07:08:31,0.281,1.0,0.204,0.005
30/07/2023,07:09:31,0.285,1.0,0.209,0.005
30/07/2023,07:10:31,0.271,1.0,0.213,0.004
30/07/2023,07:11:31,0.292,1.0,0.218,0.005
30/07/2023,07:12:31,0.297,1.0,0.223,0.005
30/07/2023,07:13:32,0.302,1.0,0.228,0.005
30/07/2023,07:14:31,0.307,1.0,0.233,0.005
30/07/2023,07:15:32,0.312,1.0,0.238,0.005
30/07/2023,07:16:31,0.318,1.0,0.243,0.005
30/07/2023,07:17:31,0.327,1.0,0.249,0.006
30/07/2023,07:18:32,0.329,1.0,0.254,0.005
30/07/2023,07:19:31,0.331,1.0,0.26,0.006
30/07/2023,07:20:31,0.337,1.0,0.265,0.005
30/07/2023,07:21:32,0.340,1.0,0.271,0.006
30/07/2023,07:22:32,0.274,1.0,0.276,0.005
30/07/2023,07:23:31,0.347,1.0,0.282,0.006
30/07/2023,07:24:32,0.353,1.0,0.287,0.005
30/07/2023,07:25:31,0.360,1.0,0.293,0.006
30/07/2023,07:26:31,0.364,1.0,0.299,0.006
30/07/2023,07:27:32,0.367,1.0,0.304,0.005
30/07/2023,07:28:31,0.375,1.0,0.31,0.006
30/07/2023,07:29:32,0.298,1.0,0.316,0.006
30/07/2023,07:30:31,0.301,1.0,0.322,0.006
30/07/2023,07:31:32,0.339,1.0,0.327,0.005
30/07/2023,07:32:31,0.408,1.0,0.333,0.006
30/07/2023,07:33:31,0.403,1.0,0.34,0.007
30/07/2023,07:34:32,0.313,1.0,0.346,0.006
30/07/2023,07:35:31,0.319,1.0,0.351,0.005
30/07/2023,07:36:31,0.419,1.0,0.358,0.007
30/07/2023,07:37:32,0.405,1.0,0.365,0.007
30/07/2023,07:38:31,0.331,1.0,0.371,0.006
30/07/2023,07:39:31,0.346,1.0,0.378,0.007
30/07/2023,07:40:32,0.448,1.0,0.385,0.007
30/07/2023,07:41:32,0.452,1.0,0.392,0.007
30/07/2023,07:42:31,0.459,1.0,0.4,0.008
30/07/2023,07:43:32,0.462,1.0,0.408,0.008
30/07/2023,07:44:31,0.364,1.0,0.414,0.006
30/07/2023,07:45:31,0.476,1.0,0.422,0.008
30/07/2023,07:46:32,0.376,1.0,0.429,0.007
30/07/2023,07:47:31,0.478,1.0,0.436,0.007
30/07/2023,07:48:32,0.500,1.0,0.444,0.008
30/07/2023,07:49:31,0.497,1.0,0.452,0.008
30/07/2023,07:50:30,0.440,1.0,0.46,0.008
30/07/2023,07:51:31,0.519,1.0,0.467,0.007
30/07/2023,07:52:32,0.523,1.0,0.476,0.009
30/07/2023,07:53:31,0.530,1.0,0.485,0.009
30/07/2023,07:54:31,0.508,1.0,0.493,0.008
30/07/2023,07:55:32,0.548,1.0,0.502,0.009
30/07/2023,07:56:32,0.546,1.0,0.512,0.01
30/07/2023,07:57:32,0.558,1.0,0.519,0.007
30/07/2023,07:58:31,0.562,1.0,0.528,0.009
30/07/2023,07:59:32,0.562,1.0,0.538,0.01
30/07/2023,08:00:31,0.578,1.0,0.546,0.008
30/07/2023,08:01:32,0.594,1.0,0.556,0.01
30/07/2023,08:02:32,0.576,1.0,0.566,0.01
30/07/2023,08:03:32,0.598,1.0,0.575,0.009
30/07/2023,08:04:32,0.605,1.0,0.585,0.01
30/07/2023,08:05:31,0.612,1.0,0.596,0.011
30/07/2023,08:06:32,0.622,1.0,0.606,0.01
30/07/2023,08:07:31,0.634,1.0,0.616,0.01
30/07/2023,08:08:31,0.638,1.0,0.627,0.011
30/07/2023,08:09:32,0.641,1.0,0.637,0.01
30/07/2023,08:10:31,0.655,2.0,0.648,0.011
30/07/2023,08:11:31,0.470,1.0,0.658,0.01
30/07/2023,08:12:31,0.661,2.0,0.667,0.009
30/07/2023,08:13:32,0.671,2.0,0.678,0.011
30/07/2023,08:14:32,0.512,1.0,0.688,0.01
30/07/2023,08:15:32,0.528,1.0,0.698,0.01
30/07/2023,08:16:31,0.590,1.0,0.709,0.011
30/07/2023,08:17:31,0.494,1.0,0.72,0.011
30/07/2023,08:18:32,0.713,2.0,0.73,0.01
30/07/2023,08:19:31,0.710,2.0,0.742,0.012
30/07/2023,08:20:31,0.698,2.0,0.753,0.011
30/07/2023,08:21:32,0.598,1.0,0.763,0.01
30/07/2023,08:22:31,0.653,2.0,0.775,0.012
30/07/2023,08:23:31,0.733,2.0,0.786,0.011
30/07/2023,08:24:32,0.571,1.0,0.798,0.012
30/07/2023,08:25:31,0.496,1.0,0.807,0.009
30/07/2023,08:26:31,0.764,2.0,0.816,0.009
30/07/2023,08:27:31,0.599,1.0,0.827,0.011
30/07/2023,08:28:31,0.791,2.0,0.838,0.011
30/07/2023,08:29:32,0.629,1.0,0.85,0.012
30/07/2023,08:30:32,0.831,2.0,0.861,0.011
30/07/2023,08:31:32,0.841,2.0,0.875,0.014
30/07/2023,08:32:32,0.567,1.0,0.887,0.012
30/07/2023,08:33:31,0.566,1.0,0.896,0.009
30/07/2023,08:34:31,0.567,1.0,0.906,0.01
30/07/2023,08:35:32,0.585,1.0,0.916,0.01
30/07/2023,08:36:31,0.770,2.0,0.927,0.011
30/07/2023,08:37:31,0.634,1.0,0.937,0.01
30/07/2023,08:38:32,0.875,2.0,0.952,0.015
30/07/2023,08:39:32,0.889,2.0,0.966,0.014
30/07/2023,08:40:32,0.911,2.0,0.981,0.015
30/07/2023,08:41:31,0.859,2.0,0.996,0.015
30/07/2023,08:42:32,0.820,2.0,1.011,0.015
30/07/2023,08:43:31,0.930,2.0,1.026,0.015
30/07/2023,08:44:32,0.921,2.0,1.041,0.015
30/07/2023,08:45:31,0.941,2.0,1.057,0.016
30/07/2023,08:46:32,0.969,2.0,1.073,0.016
30/07/2023,08:47:32,0.753,2.0,1.088,0.015
30/07/2023,08:48:32,1.002,2.0,1.104,0.016
30/07/2023,08:49:32,0.998,2.0,1.12,0.016
30/07/2023,08:50:32,0.829,2.0,1.136,0.016
30/07/2023,08:51:32,0.986,2.0,1.152,0.016
30/07/2023,08:52:32,0.986,2.0,1.165,0.013
30/07/2023,08:53:32,0.612,1.0,1.179,0.014
30/07/2023,08:54:31,0.532,1.0,1.189,0.01
30/07/2023,08:55:32,0.522,1.0,1.198,0.009
30/07/2023,08:56:32,0.567,1.0,1.207,0.009
30/07/2023,08:57:32,0.673,2.0,1.217,0.01
30/07/2023,08:58:31,0.681,2.0,1.229,0.012
30/07/2023,08:59:32,0.814,2.0,1.242,0.013
30/07/2023,09:00:32,0.465,1.0,1.252,0.01
30/07/2023,09:01:31,0.478,1.0,1.259,0.007
30/07/2023,09:02:32,0.562,1.0,1.268,0.009
30/07/2023,09:03:31,0.905,2.0,1.281,0.013
30/07/2023,09:04:32,0.763,2.0,1.296,0.015
30/07/2023,09:05:31,1.070,2.0,1.309,0.013
30/07/2023,09:06:32,1.105,3.0,1.327,0.018
30/07/2023,09:07:32,1.131,3.0,1.345,0.018
30/07/2023,09:08:31,1.125,3.0,1.364,0.019
30/07/2023,09:09:32,0.703,2.0,1.379,0.015
30/07/2023,09:10:32,0.718,2.0,1.391,0.012
30/07/2023,09:11:31,1.128,3.0,1.409,0.018
30/07/2023,09:12:32,1.134,3.0,1.428,0.019
30/07/2023,09:13:32,0.778,2.0,1.447,0.019
30/07/2023,09:14:32,1.165,3.0,1.465,0.018
30/07/2023,09:15:32,1.185,3.0,1.485,0.02
30/07/2023,09:16:32,1.130,3.0,1.505,0.02
30/07/2023,09:17:32,1.217,3.0,1.524,0.019
30/07/2023,09:18:32,0.813,2.0,1.544,0.02
30/07/2023,09:19:32,0.936,2.0,1.558,0.014
30/07/2023,09:20:32,1.297,3.0,1.577,0.019
30/07/2023,09:21:31,1.035,2.0,1.596,0.019
30/07/2023,09:22:32,0.936,2.0,1.612,0.016
30/07/2023,09:23:32,0.970,2.0,1.627,0.015
30/07/2023,09:24:31,0.976,2.0,1.643,0.016
30/07/2023,09:25:31,1.012,2.0,1.661,0.018
30/07/2023,09:26:32,0.886,2.0,1.678,0.017
30/07/2023,09:27:32,1.316,3.0,1.699,0.021
30/07/2023,09:28:31,1.306,3.0,1.721,0.022
30/07/2023,09:29:31,1.296,3.0,1.742,0.021
30/07/2023,09:30:32,0.798,2.0,1.757,0.015
30/07/2023,09:31:31,0.689,2.0,1.77,0.013
30/07/2023,09:32:32,0.572,1.0,1.781,0.011
30/07/2023,09:33:31,0.552,1.0,1.791,0.01
30/07/2023,09:34:31,0.631,1.0,1.8,0.009
30/07/2023,09:35:31,0.645,1.0,1.811,0.011
30/07/2023,09:36:32,0.708,2.0,1.822,0.011
30/07/2023,09:37:31,0.769,2.0,1.837,0.015
30/07/2023,09:38:32,1.345,3.0,1.853,0.016
30/07/2023,09:39:32,1.438,3.0,1.877,0.024
30/07/2023,09:40:32,1.463,3.0,1.901,0.024
30/07/2023,09:41:31,1.152,3.0,1.92,0.019
30/07/2023,09:42:32,1.336,3.0,1.937,0.017
30/07/2023,09:43:31,1.519,4.0,1.962,0.025
30/07/2023,09:44:31,1.258,3.0,1.986,0.024
30/07/2023,09:45:32,1.559,4.0,2.007,0.021
30/07/2023,09:46:31,1.518,3.0,2.032,0.025
30/07/2023,09:47:31,1.246,3.0,2.051,0.019
30/07/2023,09:48:31,1.384,3.0,2.074,0.023
30/07/2023,09:49:32,1.489,3.0,2.1,0.026
30/07/2023,09:50:32,1.531,4.0,2.125,0.025
30/07/2023,09:51:32,1.001,2.0,2.146,0.021
30/07/2023,09:52:32,1.171,3.0,2.164,0.018
30/07/2023,09:53:32,1.021,2.0,2.185,0.021
30/07/2023,09:54:31,1.000,2.0,2.201,0.016
30/07/2023,09:55:32,1.207,3.0,2.221,0.02
30/07/2023,09:56:32,1.419,3.0,2.242,0.021
30/07/2023,09:57:32,1.104,3.0,2.265,0.023
30/07/2023,09:58:32,0.890,2.0,2.282,0.017
30/07/2023,09:59:32,0.920,2.0,2.297,0.015